Location: Cabri�res
(43.7840°N, 5.4986°E)
Time: 11:09:05
(UTC+00:00)

Cosmos 676 Rocket - Pass Details

Date: 09 April 2020
Orbit: 755 x 784 km, 74.0° (Epoch: 03 June)

Event Time Altitude Azimuth Distance (km) Brightness Sun altitude
Rises 19:05:16 0° 177° (S) 3,243 7.0 -9.5°
Reaches altitude 10° 19:07:46 10° 170° (S) 2,316 6.2 -10.0°
Maximum altitude 19:12:37 39° 102° (ESE) 1,140 4.4 -10.8°
Drops below altitude 10° 19:17:28 10° 35° (NE) 2,313 6.4 -11.6°
Sets 19:19:58 0° 28° (NNE) 3,240 7.2 -12.0°
